Вернуться в каталог

STARLINK-4758

АктивенСвязьVLEO
NORAD 53820·PAYLOAD·🇺🇸 United States

Запущен Sep 19, 2022 с Cape Canaveral Space Force Station

Loading…

Ближайшие Пролёты (ближайшие 24 часа)

TLE

СвежийSource: CelesTrak SupGP

Эпоха: Sep 14, 2026, 21:50 UTC

1 53820C 22114C   26257.91020833 -.00017553  00000+0 -50273-3 0  2575
2 53820  53.1590 166.2429 0003165 110.0190  67.1297 15.35370814    10

Отслеживайте STARLINK-4758 в реальном времени с AllMySat

Download on the App Store